User: anonymous   Login
Location: Newark
(11.2914°S, 14.4718°E)
Time: 23:20:45
(UTC+00:00)
Language:

deb Explorer IX - Orbit

View from above orbital plane
View from above orbital plane
View from above satellite
View from above satellite

Ground track
Ground track

The orbit data is extracted from the following two-line orbital elements,

1    85U 61004C   19263.22491681 -.00002201  00000-0 -44949-3 0  9998
2    85  38.7741 323.6140 0390354 132.7042 230.7269 14.19930329892501
Epoch (UTC): 20 September 2019 05:23:52
Eccentricity: 0.0390354
inclination: 38.7741°
perigee height: 544 km
apogee height: 1107 km
right ascension of ascending node: 323.6140°
argument of perigee: 132.7042°
revolutions per day: 14.19930329
mean anomaly at epoch: 230.7269°
orbit number at epoch: 89250

The dashed part of the orbit path shows where the satellite is in the earth's shadow,  

DLR